[[{"header":{"parameterUnit":"m.s-1","parameterCategory":1,"la1":30.2991,"la2":30.254,"lo1":-89.0895,"lo2":-89.0444,"dy":0.0017,"dx":0.0017,"nx":28,"ny":28,"refTime":"2024-10-07T03:00:00:Z","depth":0,"parameterNumber":2,"parameterNumberName":"U-component_of_WINDS"},"data":[0,0,0,0,0,0,0,0,0,0,0,0,0,0,0,0,0,0,0,0,0,0,0,0,0,0,0,0,0,0,0,0,0,0,0,0,0,0,0,0,0,0,0,0,0,0,0,0,0,0,0,0,0,0,0,0,0,0,-2.998,-2.998,0,-2.9946,-2.9945,-2.9945,-2.9914,-2.9913,-2.9913,-2.9913,-2.9877,-2.9876,-2.9875,0,0,0,0,0,0,0,0,0,0,0,0,0,-3.002,-3.002,-2.998,-2.998,-2.998,-2.9946,-2.9945,-2.9945,-2.9914,-2.9913,-2.9913,-2.9912,-2.9877,-2.9876,-2.9875,0,0,0,0,0,0,0,0,0,0,0,0,0,-2.9996,-3.0019,-2.998,-2.996,-2.9958,-2.9946,-2.9945,-2.9945,-2.9914,-2.9913,-2.9913,-2.9912,-2.9877,-2.9876,-2.9875,-2.988,0,0,-2.9872,-2.9872,0,0,0,0,0,0,0,0,-2.9997,-2.9994,-2.9963,-2.9961,-2.9959,-2.9933,-2.9946,-2.9923,-2.9914,-2.9931,-2.9913,-2.9912,-2.9896,-2.9893,-2.9888,-2.9879,-2.9877,-2.9872,-2.9872,-2.9871,-2.9871,0,0,0,0,0,0,0,-2.9999,-2.9996,-2.9967,-2.9963,-2.996,-2.9953,-2.9949,-2.9941,-2.9917,-2.9929,-2.9927,-2.9923,-2.9895,-2.9889,-2.9887,-2.9877,-2.9872,-2.9871,-2.9871,-2.987,-2.9871,-2.9871,0,0,0,0,0,0,-3.0004,-2.9997,-2.9968,-2.9966,-2.9977,-2.9952,-2.9948,-2.9942,-2.9917,-2.9912,-2.9924,-2.9922,-2.9891,-2.9888,-2.9886,-2.989,-2.9871,-2.987,-2.987,-2.987,-2.9871,-2.9871,0,0,0,0,0,0,-3.0005,-3.0001,-2.9969,-2.9981,-2.9976,-2.9952,-2.9946,-2.9942,-2.9936,-2.9913,-2.9908,-2.9922,-2.989,-2.9887,-2.9882,-2.9888,-2.987,-2.9869,-2.9869,-2.987,-2.9871,-2.9899,0,0,0,0,0,0,-3.0006,-3.0002,-3.0004,-2.9981,-2.9976,-2.9966,-2.9947,-2.9941,-2.9935,-2.9932,-2.991,-2.9906,-2.989,-2.9884,-2.9881,-2.9887,-2.9868,-2.9869,-2.987,-2.9871,-2.9898,-2.9901,-2.9904,0,0,0,0,0,-3.0008,-3.0013,-3.0004,-3.0,-2.9977,-2.9967,-2.9963,-2.9944,-2.9935,-2.9937,-2.9922,-2.9907,-2.9889,-2.9883,-2.988,-2.9886,-2.9868,-2.987,-2.9871,-2.9896,-2.99,-2.9904,0,0,0,0,0,0,-3.0036,-3.0009,-2.9999,-2.9997,-2.9984,-2.9961,-2.9962,-2.9949,-2.9939,-2.9936,-2.9913,-2.9909,-2.9907,-2.9896,-2.9891,-2.989,-2.9876,-2.9877,-2.9897,-2.9901,-2.9904,-2.9906,-2.9868,0,0,0,0,0,-3.0042,-3.0036,-3.0013,-3.0013,-3.0007,-2.9986,-2.9981,-2.9968,-2.9953,-2.9948,-2.9932,-2.9919,-2.991,-2.9905,-2.9896,-2.9897,-2.9891,-2.9899,-2.9902,-2.9905,-2.9905,-2.9905,-2.9909,-2.9876,-2.9876,-2.9876,0,0,-3.0054,-3.0039,-3.0036,-3.0018,-3.0007,-3.0001,-2.9982,-2.9976,-2.9971,-2.9947,-2.9941,-2.993,-2.9914,-2.9912,-2.991,-2.9903,-2.9914,-2.9906,-2.9909,-2.9908,-2.9907,-2.991,-2.9913,-2.9876,-2.9876,-2.9876,0,0,-3.0073,-3.0061,-3.006,-3.0049,-3.0033,-3.0019,-3.0019,-2.9998,-2.999,-2.9984,-2.9966,-2.996,-2.9946,-2.9935,-2.9928,-2.9945,-2.9931,-2.9943,-2.9958,-2.9959,-2.9961,-2.9963,-2.9969,-2.9972,-2.9943,-2.9943,-2.9944,0,-3.009,-3.008,-3.0061,-3.0057,-3.005,-3.0028,-3.0027,-3.0018,-2.9999,-2.9995,-2.9987,-2.9969,-2.9956,-2.9952,-2.9956,-2.9951,-2.9951,-2.9944,-2.9962,-2.9964,-2.9966,-2.9972,-2.9974,-2.9945,-2.9945,-2.9945,-2.9944,0,-3.0102,-3.0096,-3.0097,-3.008,-3.0073,-3.0071,-3.0051,-3.0047,-3.0035,-3.0022,-3.0017,-3.0002,-2.9989,-2.9988,-2.9975,-2.9982,-2.9978,-2.9967,-2.9952,-2.9971,-2.9976,-2.9978,-2.9947,-2.9947,-2.9946,-2.9946,0,0,-3.0135,-3.0109,-3.011,-3.0102,-3.0083,-3.0078,-3.0075,-3.0063,-3.006,-3.0048,-3.0045,-3.0034,-3.0024,-3.0016,-3.0003,-3.0003,-3.0018,-2.9992,-2.9991,-2.9997,-3.0024,-3.0032,-3.0035,-3.0009,-3.001,-3.001,-3.0026,0,-3.0151,-3.0144,-3.0127,-3.0126,-3.012,-3.01,-3.0098,-3.0086,-3.0075,-3.0068,-3.0056,-3.0048,-3.0035,-3.003,-3.003,-3.0016,-3.0023,-3.0015,-3.0006,-3.0006,-3.0009,-3.0037,-3.0045,-3.0061,-3.0027,-3.0028,-3.0028,0,-3.0167,-3.0157,-3.0155,-3.0137,-3.0134,-3.0132,-3.0121,-3.0115,-3.0102,-3.0093,-3.0085,-3.0071,-3.0067,-3.0055,-3.005,-3.0045,-3.004,-3.0033,-3.0033,-3.0031,-3.0017,-3.0035,-3.0065,-3.0068,-3.0031,-3.003,-3.003,0,-3.0191,-3.0178,-3.0175,-3.0169,-3.0148,-3.0147,-3.0139,-3.0125,-3.0119,-3.011,-3.0106,-3.0096,-3.009,-3.0083,-3.0066,-3.0059,-3.0063,-3.0049,-3.0056,-3.0056,-3.0056,-3.0056,-3.0085,-3.0055,-3.0055,-3.0055,-3.0055,0,-3.0209,-3.0209,-3.0185,-3.0184,-3.0183,-3.0164,-3.0164,-3.0154,-3.0142,-3.0138,-3.0121,-3.0117,-3.0096,-3.0091,-3.0078,-3.0076,-3.0073,-3.0067,-3.0063,-3.0067,-3.0068,-3.0063,-3.0061,-3.0055,-3.0055,-3.0055,-3.0055,0,-3.0235,-3.022,-3.0215,-3.0197,-3.0192,-3.0193,-3.0177,-3.0174,-3.0163,-3.0158,-3.0156,-3.0137,-3.013,-3.0113,-3.0101,-3.0093,-3.0093,-3.0088,-3.0098,-3.0095,-3.0103,-3.0102,-3.0129,-3.0132,-3.0101,-3.0101,-3.0101,0,-3.0247,-3.0246,-3.0228,-3.0225,-3.0217,-3.0211,-3.0206,-3.0188,-3.0183,-3.0169,-3.0169,-3.016,-3.0152,-3.0141,-3.0127,-3.0118,-3.0111,-3.0122,-3.011,-3.0115,-3.0111,-3.0111,-3.0111,-3.0124,-3.0124,-3.0125,-3.0125,0,-3.027,-3.0263,-3.0256,-3.0246,-3.0241,-3.0232,-3.0223,-3.0221,-3.0201,-3.0197,-3.0189,-3.0183,-3.0172,-3.0164,-3.0153,-3.0144,-3.0131,-3.0129,-3.013,-3.0134,-3.014,-3.0136,-3.0104,-3.0128,-3.0128,-3.0127,-3.0127,-3.0127,-3.0289,-3.0288,-3.0275,-3.0268,-3.0259,-3.0252,-3.0249,-3.0237,-3.0231,-3.022,-3.0211,-3.0204,-3.0192,-3.0176,-3.0169,-3.0164,-3.0157,-3.0159,-3.0159,-3.0159,-3.0161,-3.0142,-3.0162,-3.0162,-3.0162,-3.0161,-3.0161,0,-3.031,-3.0302,-3.0296,-3.0284,-3.0278,-3.0268,-3.0257,-3.0254,-3.0248,-3.0238,-3.0231,-3.0223,-3.0216,-3.0201,-3.0193,-3.0191,-3.0185,-3.019,-3.0189,-3.0187,-3.0168,-3.0167,-3.0195,-3.0195,-3.0195,-3.0195,-3.0195,-3.0195,-3.0321,-3.0318,-3.031,-3.0303,-3.0294,-3.0288,-3.0283,-3.0276,-3.0268,-3.026,-3.0254,-3.0245,-3.0233,-3.0224,-3.0217,-3.0213,-3.021,-3.0216,-3.021,-3.0192,-3.0189,-3.0186,-3.0185,-3.0216,-3.0216,-3.023,-3.023,-3.023]},{"header":{"parameterUnit":"m.s-1","parameterCategory":1,"la1":30.2991,"la2":30.254,"lo1":-89.0895,"lo2":-89.0444,"dy":0.0017,"dx":0.0017,"nx":28,"ny":28,"refTime":"2024-10-07T03:00:00:Z","depth":0,"parameterNumber":3,"parameterNumberName":"V-component_of_WINDS"},"data":[0,0,0,0,0,0,0,0,0,0,0,0,0,0,0,0,0,0,0,0,0,0,0,0,0,0,0,0,0,0,0,0,0,0,0,0,0,0,0,0,0,0,0,0,0,0,0,0,0,0,0,0,0,0,0,0,0,0,-3.4509,-3.4509,0,-3.4508,-3.4508,-3.4508,-3.4537,-3.4537,-3.4538,-3.4539,-3.4536,-3.4535,-3.4535,0,0,0,0,0,0,0,0,0,0,0,0,0,-3.4534,-3.4533,-3.4509,-3.4509,-3.4509,-3.4508,-3.4508,-3.4508,-3.4536,-3.4537,-3.4538,-3.4539,-3.4536,-3.4535,-3.4534,0,0,0,0,0,0,0,0,0,0,0,0,0,-3.4527,-3.4533,-3.4509,-3.4523,-3.4524,-3.4508,-3.4508,-3.4508,-3.4536,-3.4537,-3.4539,-3.454,-3.4537,-3.4536,-3.4534,-3.4504,0,0,-3.4531,-3.453,0,0,0,0,0,0,0,0,-3.4527,-3.4526,-3.4521,-3.4522,-3.4523,-3.4524,-3.4516,-3.4507,-3.4536,-3.4532,-3.4539,-3.454,-3.4531,-3.453,-3.4528,-3.4504,-3.4504,-3.4531,-3.453,-3.4529,-3.4529,0,0,0,0,0,0,0,-3.4528,-3.4526,-3.4508,-3.4521,-3.4522,-3.4529,-3.4529,-3.4514,-3.4525,-3.4532,-3.4534,-3.4534,-3.4532,-3.4529,-3.4528,-3.4504,-3.4531,-3.453,-3.4529,-3.4528,-3.4458,-3.4457,0,0,0,0,0,0,-3.4526,-3.4526,-3.4508,-3.4508,-3.4528,-3.4528,-3.4528,-3.4522,-3.4525,-3.4527,-3.4533,-3.4535,-3.453,-3.4529,-3.4528,-3.4494,-3.4529,-3.4528,-3.4528,-3.4459,-3.4457,-3.4456,0,0,0,0,0,0,-3.4527,-3.4525,-3.4508,-3.4518,-3.4516,-3.4526,-3.4519,-3.4522,-3.4519,-3.4526,-3.4527,-3.4528,-3.4531,-3.4529,-3.451,-3.4494,-3.4528,-3.4527,-3.446,-3.4458,-3.4457,-3.4424,0,0,0,0,0,0,-3.4527,-3.4525,-3.4513,-3.4518,-3.4516,-3.4491,-3.4518,-3.4521,-3.4517,-3.452,-3.4521,-3.4523,-3.4532,-3.4512,-3.4509,-3.4493,-3.4526,-3.4462,-3.4459,-3.4457,-3.4427,-3.4422,-3.4417,0,0,0,0,0,-3.4528,-3.4503,-3.4512,-3.451,-3.4502,-3.449,-3.4489,-3.45,-3.4515,-3.4504,-3.4509,-3.4523,-3.4496,-3.451,-3.4507,-3.449,-3.4463,-3.446,-3.4457,-3.4429,-3.4423,-3.4417,0,0,0,0,0,0,-3.4495,-3.4504,-3.4514,-3.449,-3.4489,-3.4495,-3.4481,-3.4493,-3.4488,-3.449,-3.4505,-3.4505,-3.4484,-3.4485,-3.45,-3.4462,-3.4482,-3.4479,-3.4462,-3.4456,-3.4451,-3.4451,-3.4525,0,0,0,0,0,-3.4485,-3.4475,-3.4483,-3.4461,-3.446,-3.4471,-3.4466,-3.4475,-3.4475,-3.4474,-3.4478,-3.4476,-3.4468,-3.4462,-3.4455,-3.4428,-3.4429,-3.4415,-3.441,-3.4406,-3.4403,-3.439,-3.4384,-3.4447,-3.4447,-3.4447,0,0,-3.4464,-3.4467,-3.446,-3.4454,-3.4455,-3.4445,-3.447,-3.4457,-3.445,-3.4472,-3.4455,-3.4457,-3.4457,-3.4434,-3.4425,-3.4435,-3.4386,-3.4403,-3.4399,-3.4398,-3.4387,-3.4381,-3.4376,-3.4446,-3.4446,-3.4446,0,0,-3.442,-3.4421,-3.4404,-3.4405,-3.4406,-3.4413,-3.4409,-3.4414,-3.4417,-3.44,-3.4417,-3.4408,-3.4393,-3.4393,-3.439,-3.4349,-3.4362,-3.4346,-3.4321,-3.4308,-3.4303,-3.4299,-3.4285,-3.428,-3.4343,-3.4343,-3.4343,0,-3.4393,-3.4378,-3.4393,-3.438,-3.4377,-3.4399,-3.4381,-3.4381,-3.4379,-3.4377,-3.4389,-3.4372,-3.4373,-3.4351,-3.4342,-3.4339,-3.4335,-3.4346,-3.4303,-3.4299,-3.4295,-3.4282,-3.4276,-3.4341,-3.4341,-3.4342,-3.4342,0,-3.4346,-3.4335,-3.4321,-3.4321,-3.4316,-3.4301,-3.4313,-3.4308,-3.4318,-3.4324,-3.4308,-3.431,-3.4305,-3.43,-3.4309,-3.428,-3.4287,-3.4301,-3.4321,-3.4287,-3.4275,-3.427,-3.4339,-3.4339,-3.434,-3.434,0,0,-3.4278,-3.4289,-3.4283,-3.4284,-3.4288,-3.428,-3.4266,-3.4262,-3.4257,-3.4256,-3.4245,-3.4233,-3.4247,-3.4244,-3.4254,-3.4243,-3.4212,-3.4258,-3.4259,-3.425,-3.4181,-3.417,-3.4164,-3.4221,-3.422,-3.4219,-3.4181,0,-3.4236,-3.4214,-3.4228,-3.4203,-3.4195,-3.4216,-3.4205,-3.4206,-3.4212,-3.4205,-3.4212,-3.4204,-3.4222,-3.4221,-3.4211,-3.4217,-3.4198,-3.422,-3.4211,-3.421,-3.421,-3.4158,-3.4146,-3.411,-3.4176,-3.4176,-3.4175,0,-3.4184,-3.4182,-3.4157,-3.4165,-3.4162,-3.4151,-3.4149,-3.4143,-3.4145,-3.415,-3.4149,-3.4162,-3.415,-3.4171,-3.4154,-3.4169,-3.4166,-3.4169,-3.4168,-3.4167,-3.419,-3.4156,-3.4099,-3.4094,-3.4168,-3.4168,-3.4169,0,-3.4138,-3.4129,-3.4114,-3.4114,-3.4122,-3.4115,-3.4118,-3.4122,-3.4119,-3.4117,-3.4116,-3.4112,-3.411,-3.4107,-3.412,-3.4134,-3.4102,-3.4123,-3.4106,-3.4106,-3.4098,-3.4098,-3.404,-3.4096,-3.4096,-3.4096,-3.4096,0,-3.4089,-3.4073,-3.4094,-3.4084,-3.4067,-3.4084,-3.4066,-3.4072,-3.4076,-3.4067,-3.4086,-3.4078,-3.4094,-3.4088,-3.4098,-3.4083,-3.4082,-3.4086,-3.4089,-3.4084,-3.4084,-3.4082,-3.4085,-3.4095,-3.4095,-3.4095,-3.4095,0,-3.4035,-3.4048,-3.4032,-3.4043,-3.4045,-3.4032,-3.4041,-3.4033,-3.4041,-3.4031,-3.4029,-3.4042,-3.4036,-3.4049,-3.4044,-3.405,-3.403,-3.4036,-3.4029,-3.4031,-3.4013,-3.4015,-3.3952,-3.3945,-3.4005,-3.4005,-3.4004,0,-3.4002,-3.3991,-3.4001,-3.3998,-3.4,-3.3994,-3.3992,-3.4009,-3.4006,-3.4009,-3.4,-3.3996,-3.3994,-3.3983,-3.3992,-3.3989,-3.3996,-3.3974,-3.3995,-3.3992,-3.3996,-3.3996,-3.3996,-3.3969,-3.3969,-3.3968,-3.3967,0,-3.3944,-3.3952,-3.3949,-3.3948,-3.3946,-3.3946,-3.3947,-3.3943,-3.3961,-3.3957,-3.3952,-3.395,-3.3946,-3.3942,-3.3942,-3.3945,-3.3959,-3.3961,-3.3957,-3.3952,-3.3949,-3.3951,-3.4017,-3.3962,-3.3963,-3.3963,-3.3963,-3.3963,-3.39,-3.3891,-3.3898,-3.3894,-3.3898,-3.3899,-3.3892,-3.3901,-3.3897,-3.3896,-3.3906,-3.3899,-3.3904,-3.3905,-3.3907,-3.3902,-3.3912,-3.3906,-3.3904,-3.3902,-3.39,-3.395,-3.3902,-3.3902,-3.3902,-3.3902,-3.3903,0,-3.3843,-3.3849,-3.3846,-3.3848,-3.3845,-3.3861,-3.3864,-3.386,-3.3854,-3.3858,-3.3856,-3.3851,-3.3848,-3.3857,-3.3856,-3.385,-3.3856,-3.3849,-3.3849,-3.385,-3.3891,-3.3895,-3.3844,-3.3844,-3.3844,-3.3844,-3.3844,-3.3844,-3.3813,-3.38,-3.3809,-3.3798,-3.3804,-3.3798,-3.3799,-3.3801,-3.3804,-3.3798,-3.3796,-3.3803,-3.3809,-3.3809,-3.3807,-3.381,-3.3808,-3.3798,-3.3803,-3.3841,-3.3847,-3.3852,-3.3856,-3.3798,-3.3798,-3.3763,-3.3763,-3.3763]}]]